Weather History for VDSR - January, 2013

Change the Weather History Date:

Wednesday, January 30, 2013

  Actual Average Record
Temperature  
Mean Temperature 81 °F -  
Max Temperature 89 °F - - ()
Min Temperature 73 °F - - ()
Cooling Degree Days 16    
Growing Degree Days 31 (Base 50)    
Moisture  
Dew Point 65 °F    
Average Humidity 57    
Maximum Humidity 83    
Minimum Humidity 33    
Precipitation  
Precipitation 0.00 in - - ()
Sea Level Pressure  
Sea Level Pressure 29.91 in    
Wind  
Wind Speed 6 mph ()    
Max Wind Speed 14 mph    
Max Gust Speed -    
Visibility 5.2 miles    
Events      
T = Trace of Precipitation, MM = Missing Value Source: Averaged Metar Reports

Daily Weather History Graph

Daily Weather History Graph

Search for Another Location

Airport or City:

Trip Planner

Search our weather history database for the weather conditions in past years. The results will help you decide how hot, cold, wet, or windy it might be!

Date:

Astronomy

Jan. 30, 2013 Rise Set
Actual Time 6:31 AM ICT 6:04 PM ICT
Civil Twilight 6:09 AM ICT 6:26 PM ICT
Nautical Twilight 5:43 AM ICT 6:52 PM ICT
Astronomical Twilight 5:18 AM ICT 7:17 PM ICT
Moon 8:44 PM ICT (1/30) 8:21 AM ICT (1/30)
Length of Visible Light 12h 17m
Length of Day
11h 32m
Waning Gibbous, 91% of the Moon is Illuminated
Jan 30
Waning Gibbous
Feb 3
Last Quarter
Feb 10
New
Feb 18
First Quarter
Feb 26
Full

Hourly Weather History & Observations

Time (ICT) Temp. Heat Index Dew Point Humidity Pressure Visibility Wind Dir Wind Speed Gust Speed Precip Events Conditions
12:00 AM 78.8 °F - 69.8 °F 74% 29.92 in 5.0 mi West 4.6 mph - N/A   Unknown
12:30 AM 78.8 °F - 69.8 °F 74% 29.92 in 5.0 mi WNW 2.3 mph - N/A   Unknown
7:00 AM - - - %  in - Calm Calm - -  
7:00 AM 75.2 °F - 60.8 °F 61% 29.95 in 4.3 mi ESE 8.1 mph - N/A   Partly Cloudy
7:30 AM 75.2 °F - 60.8 °F 61% 29.95 in 4.3 mi ESE 8.1 mph - N/A   Partly Cloudy
8:00 AM 77.0 °F - 60.8 °F 57% 29.98 in 4.3 mi ESE 10.4 mph - N/A   Partly Cloudy
8:30 AM 78.8 °F - 60.8 °F 54% 29.98 in 4.3 mi ESE 11.5 mph - N/A   Partly Cloudy
9:00 AM 78.8 °F - 62.6 °F 57% 29.98 in 4.3 mi ESE 11.5 mph - N/A   Partly Cloudy
9:30 AM 80.6 °F 81.8 °F 62.6 °F 54% 29.98 in 4.3 mi ESE 12.7 mph - N/A   Partly Cloudy
10:00 AM 82.4 °F 82.9 °F 60.8 °F 48% 29.98 in 5.6 mi ESE 10.4 mph - N/A   Partly Cloudy
10:30 AM 82.4 °F 82.9 °F 60.8 °F 48% 29.98 in 5.6 mi ESE 13.8 mph - N/A   Partly Cloudy
11:00 AM 84.2 °F 84.4 °F 60.8 °F 45% 29.95 in 5.6 mi ESE 11.5 mph - N/A   Partly Cloudy
11:30 AM 86.0 °F 86.1 °F 60.8 °F 43% 29.95 in 6.2 mi ESE 12.7 mph - N/A   Partly Cloudy
12:00 PM 86.0 °F 85.4 °F 59.0 °F 40% 29.95 in 6.2 mi ESE 10.4 mph - N/A   Partly Cloudy
12:30 PM 87.8 °F 87.1 °F 59.0 °F 38% 29.92 in 6.2 mi SE 8.1 mph - N/A   Partly Cloudy
1:00 PM 87.8 °F 87.1 °F 59.0 °F 38% 29.89 in 6.2 mi East 9.2 mph - N/A   Partly Cloudy
1:30 PM 89.6 °F 88.1 °F 57.2 °F 33% 29.89 in 6.2 mi SE 6.9 mph - N/A   Partly Cloudy
2:00 PM 89.6 °F 88.9 °F 59.0 °F 36% 29.86 in 6.2 mi SSE 8.1 mph - N/A   Partly Cloudy
2:30 PM 89.6 °F 91.1 °F 64.4 °F 43% 29.86 in 6.2 mi South 8.1 mph - N/A   Partly Cloudy
3:00 PM 87.8 °F 89.4 °F 64.4 °F 46% 29.86 in 6.2 mi South 9.2 mph - N/A   Partly Cloudy
3:30 PM 87.8 °F 89.4 °F 64.4 °F 46% 29.83 in 6.2 mi SSW 8.1 mph - N/A   Partly Cloudy
4:00 PM 87.8 °F 90.4 °F 66.2 °F 49% 29.86 in 6.2 mi SSW 6.9 mph - N/A   Partly Cloudy
4:30 PM 86.0 °F 88.2 °F 66.2 °F 51% 29.86 in 6.2 mi SW 6.9 mph - N/A   Partly Cloudy
5:00 PM 86.0 °F 88.2 °F 66.2 °F 51% 29.86 in 6.2 mi SW 5.8 mph - N/A   Partly Cloudy
5:30 PM 84.2 °F 86.6 °F 66.2 °F 55% 29.86 in 5.6 mi SW 4.6 mph - N/A   Partly Cloudy
6:00 PM 82.4 °F 84.6 °F 66.2 °F 58% 29.86 in 5.6 mi Variable 2.3 mph - N/A   Partly Cloudy
6:30 PM 80.6 °F 82.7 °F 66.2 °F 61% 29.89 in 4.3 mi Variable 1.2 mph - N/A   Partly Cloudy
7:00 PM 80.6 °F 83.2 °F 68.0 °F 65% 29.89 in 4.3 mi Calm Calm - N/A   Partly Cloudy
7:30 PM 80.6 °F 83.2 °F 68.0 °F 65% 29.89 in 4.3 mi Calm Calm - N/A   Partly Cloudy
8:00 PM 80.6 °F 83.2 °F 68.0 °F 65% 29.92 in 4.3 mi Calm Calm - N/A   Partly Cloudy
8:30 PM 78.8 °F - 69.8 °F 74% 29.92 in 4.3 mi Variable 2.3 mph - N/A   Partly Cloudy
9:00 PM 77.0 °F - 68.0 °F 74% 29.92 in 4.3 mi Variable 2.3 mph - N/A   Partly Cloudy
9:30 PM 77.0 °F - 69.8 °F 78% 29.92 in 4.3 mi Variable 1.2 mph - N/A   Partly Cloudy
10:00 PM 77.0 °F - 69.8 °F 78% 29.92 in 4.3 mi Calm Calm - N/A   Partly Cloudy
10:30 PM 77.0 °F - 69.8 °F 78% 29.92 in 4.3 mi Calm Calm - N/A   Partly Cloudy
11:00 PM 75.2 °F - 69.8 °F 83% 29.89 in 4.3 mi Calm Calm - N/A   Partly Cloudy
11:30 PM 75.2 °F - 68.0 °F 78% 29.89 in 4.3 mi Calm Calm - N/A   Partly Cloudy